Missoula, MT

5:16 PM MST on November 18, 2017 (GMT -0700)
Missoula International

Weather History for KMSO - December, 2013

Change the Weather History Date:

Sunday, December 8, 2013

  Actual Average Record
Temperature  
Mean Temperature -6 °F 25 °F  
Max Temperature 2 °F 32 °F 60 °F (1938)
Min Temperature -14 °F 18 °F -19 °F (1972)
Degree Days  
Heating Degree Days 71 40  
Month to date heating degree days 441 315  
Since 1 July heating degree days 2296 2211  
Cooling Degree Days 0 0  
Month to date cooling degree days 0 0  
Year to date cooling degree days 579 332  
Moisture  
Dew Point -10 °F    
Average Humidity 76    
Maximum Humidity 87    
Minimum Humidity 65    
Precipitation  
Precipitation T in 0.04 in 0.50 in (1901)
Month to date precipitation 0.34 0.28  
Year to date precipitation 8.67 13.37  
Snow  
Snow 0.10 in - - ()
Month to date snowfall 1.0  
Year to date snowfall 30.2  
Since 1 July snowfall 2.8  
Snow Depth 1.00 in    
Sea Level Pressure  
Sea Level Pressure 30.47 in    
Wind  
Wind Speed 0 mph (SW)    
Max Wind Speed 6 mph    
Max Gust Speed 6 mph    
Visibility 7 miles    
Events Snow    
T = Trace of Precipitation, MM = Missing Value Source: NWS Daily Summary

Daily Weather History Graph

Daily Weather History Graph

Search for Another Location

Airport or City:

Trip Planner

Search our weather history database for the weather conditions in past years. The results will help you decide how hot, cold, wet, or windy it might be!

Date:

Astronomy

Dec. 08, 2013 Rise Set
Actual Time 8:09 AM MST 4:47 PM MST
Civil Twilight 7:34 AM MST 5:22 PM MST
Nautical Twilight 6:55 AM MST 6:01 PM MST
Astronomical Twilight 6:18 AM MST 6:38 PM MST
Moon 12:13 PM MST (12/8) No Moon Set
Length of Visible Light 9h 48m
Length of Day
8h 38m
Waxing Crescent, 40% of the Moon is Illuminated
Dec 8
Waxing Crescent
Dec 9
First Quarter
Dec 17
Full
Dec 25
Last Quarter
Jan 1
New

Hourly Weather History & Observations

Time (MST) Temp. Windchill Dew Point Humidity Pressure Visibility Wind Dir Wind Speed Gust Speed Precip Events Conditions
12:53 AM -11.0 °F -20.4 °F -17.0 °F 75% 30.48 in 10.0 mi WNW 3.5 mph - N/A   Clear
1:53 AM -14.1 °F - -18.9 °F 79% 30.47 in 10.0 mi Calm Calm - N/A   Clear
2:53 AM -14.1 °F - -18.0 °F 82% 30.49 in 10.0 mi Calm Calm - N/A   Clear
3:53 AM -11.9 °F - -16.1 °F 82% 30.48 in 10.0 mi Calm Calm - N/A   Clear
4:53 AM -13.0 °F - -17.0 °F 82% 30.50 in 10.0 mi Calm Calm - N/A   Clear
5:53 AM -9.0 °F - -14.1 °F 79% 30.48 in 10.0 mi Calm Calm - N/A   Mostly Cloudy
6:53 AM -9.0 °F - -13.0 °F 83% 30.50 in 10.0 mi Calm Calm - N/A   Overcast
7:53 AM -8.0 °F - -11.9 °F 83% 30.51 in 10.0 mi Calm Calm - N/A   Overcast
8:43 AM -7.6 °F - -11.2 °F 84% 30.25 in 1.8 mi Calm Calm - 0.00 in Snow Light Snow
8:53 AM -7.1 °F - -11.0 °F 83% 30.53 in 1.8 mi Calm Calm - 0.00 in Snow Light Snow
8:58 AM -7.6 °F - -11.2 °F 84% 30.25 in 2.0 mi Calm Calm - 0.00 in Snow Light Snow
9:16 AM -5.8 °F - -11.2 °F 77% 30.26 in 1.8 mi Calm Calm - 0.00 in Snow Light Snow
9:28 AM -5.8 °F - -11.2 °F 77% 30.26 in 1.5 mi Calm Calm - 0.00 in Snow Light Snow
9:35 AM -5.8 °F - -9.4 °F 84% 30.26 in 2.0 mi Calm Calm - 0.00 in Snow Light Snow
9:49 AM -5.8 °F - -11.2 °F 77% 30.26 in 3.0 mi Calm Calm - 0.00 in   Haze
9:53 AM -6.0 °F - -11.0 °F 79% 30.54 in 3.0 mi Calm Calm - 0.00 in   Haze
10:03 AM -5.8 °F - -11.2 °F 77% 30.27 in 5.0 mi Calm Calm - N/A   Haze
10:53 AM -5.1 °F - -9.9 °F 80% 30.56 in 10.0 mi Calm Calm - N/A   Scattered Clouds
11:53 AM -0.9 °F - -9.0 °F 69% 30.54 in 10.0 mi Calm Calm - N/A   Overcast
12:53 PM -0.0 °F - -7.1 °F 72% 30.55 in 8.0 mi Calm Calm - N/A   Overcast
1:44 PM -0.4 °F - -5.8 °F 78% 30.27 in 4.0 mi Calm Calm - 0.00 in Snow Light Snow
1:53 PM -0.0 °F - -6.0 °F 76% 30.55 in 2.0 mi Calm Calm - 0.00 in Snow Light Snow
2:04 PM 1.4 °F - -5.8 °F 72% 30.27 in 2.5 mi Calm Calm - 0.00 in Snow Light Snow
2:13 PM 1.4 °F - -5.8 °F 72% 30.27 in 3.0 mi Calm Calm - 0.00 in Snow Light Snow
2:53 PM 1.0 °F -8.7 °F -5.1 °F 75% 30.54 in 10.0 mi South 4.6 mph - 0.00 in   Partly Cloudy
3:53 PM 1.9 °F - -5.1 °F 72% 30.55 in 10.0 mi Calm Calm - N/A   Clear
4:53 PM 1.0 °F - -5.1 °F 75% 30.57 in 10.0 mi Calm Calm - N/A   Overcast
5:53 PM 1.0 °F - -4.0 °F 79% 30.57 in 10.0 mi Calm Calm - N/A   Overcast
6:53 PM -0.0 °F - -5.1 °F 79% 30.59 in 10.0 mi Calm Calm - N/A   Overcast
7:53 PM -0.9 °F - -5.1 °F 83% 30.59 in 10.0 mi Calm Calm - N/A   Clear
8:53 PM -4.0 °F - -7.1 °F 87% 30.61 in 10.0 mi Calm Calm - N/A   Clear
9:53 PM -8.0 °F - -11.0 °F 86% 30.64 in 10.0 mi Calm Calm - N/A   Clear
10:53 PM -8.0 °F - -11.9 °F 83% 30.64 in 10.0 mi Calm Calm - N/A   Clear
11:53 PM -8.0 °F - -11.9 °F 83% 30.64 in 10.0 mi Calm Calm - N/A   Clear